Winnipeg, Manitoba

12:27 PM CDT on June 28, 2017 (GMT -0500)
Winnipeg International Airport

Weather History for CYWG - November, 2012

Change the Weather History Date:

Tuesday, November 13, 2012

  Actual Average Record
Temperature  
Mean Temperature 12 °F -  
Max Temperature 20 °F 24 °F 60 °F (1999)
Min Temperature 3 °F 7 °F -11 °F (1996)
Degree Days  
Heating Degree Days 54    
Moisture  
Dew Point 11 °F    
Average Humidity 84    
Maximum Humidity 93    
Minimum Humidity 71    
Precipitation  
Precipitation 0.00 in 0.03 in - ()
Sea Level Pressure  
Sea Level Pressure 30.25 in    
Wind  
Wind Speed 5 mph ()    
Max Wind Speed 9 mph    
Max Gust Speed -    
Visibility 14.1 miles    
Events      
Averages and records for this station are not official NWS values.
T = Trace of Precipitation, MM = Missing Value Source: Averaged Metar Reports

Daily Weather History Graph

Daily Weather History Graph

Search for Another Location

Airport or City:

Trip Planner

Search our weather history database for the weather conditions in past years. The results will help you decide how hot, cold, wet, or windy it might be!

Date:

Astronomy

Nov. 13, 2012 Rise Set
Actual Time 7:39 AM CST 4:46 PM CST
Civil Twilight 7:03 AM CST 5:22 PM CST
Nautical Twilight 6:24 AM CST 6:01 PM CST
Astronomical Twilight 5:46 AM CST 6:39 PM CST
Moon 7:20 AM CST (11/13) 4:38 PM CST (11/13)
Length of Visible Light 10h 18m
Length of Day
9h 07m
Waning Crescent, 0% of the Moon is Illuminated
Nov 13
Waning Crescent
Nov 13
New
Nov 20
First Quarter
Nov 28
Full
Dec 6
Last Quarter

Hourly Weather History & Observations

Time (CST) Temp. Windchill Dew Point Humidity Pressure Visibility Wind Dir Wind Speed Gust Speed Precip Events Conditions
12:00 AM 15 °F - 10 °F 71% 30.13 in 9 mi Calm Calm - -   Overcast
12:00 AM 15.8 °F 4.2 °F 10.4 °F 79% 30.13 in 15.0 mi SSW 9.2 mph - N/A   Overcast
1:00 AM 15.8 °F 6.1 °F 10.4 °F 79% 30.14 in 15.0 mi SW 6.9 mph - N/A   Overcast
2:00 AM 14.0 °F 2.9 °F 8.6 °F 79% 30.15 in 15.0 mi SW 8.1 mph - N/A   Partly Cloudy
3:00 AM 12.2 °F 2.9 °F 8.6 °F 85% 30.16 in 15.0 mi SW 5.8 mph - N/A   Partly Cloudy
4:00 AM 10.4 °F -0.4 °F 6.8 °F 85% 30.17 in 15.0 mi WSW 6.9 mph - N/A   Clear
5:00 AM 8.6 °F -2.6 °F 5.0 °F 85% 30.19 in 15.0 mi WSW 6.9 mph - N/A   Clear
6:00 AM 7 °F - 4 °F 80% 30.20 in 9 mi Calm Calm - -  
6:00 AM 6.8 °F -2.0 °F 3.2 °F 85% 30.20 in 15.0 mi West 4.6 mph - N/A   Clear
7:00 AM 5.0 °F -6.9 °F 3.2 °F 92% 30.22 in 15.0 mi West 6.9 mph - N/A   Scattered Clouds
8:00 AM 6.8 °F -2.0 °F 5.0 °F 92% 30.23 in 15.0 mi West 4.6 mph - N/A   Mostly Cloudy
9:00 AM 8.6 °F -4.7 °F 5.0 °F 85% 30.26 in 15.0 mi West 9.2 mph - N/A   Mostly Cloudy
10:00 AM 12.2 °F 6.1 °F 8.6 °F 85% 30.28 in 15.0 mi WNW 3.5 mph - N/A   Mostly Cloudy
11:00 AM 14.0 °F 6.5 °F 10.4 °F 86% 30.28 in 15.0 mi NW 4.6 mph - N/A   Mostly Cloudy
12:00 PM 17 °F - 13 °F 76% 30.28 in 9 mi Calm Calm - -  
12:00 PM 17.6 °F - 12.2 °F 79% 30.28 in 15.0 mi West 2.3 mph - N/A   Mostly Cloudy
1:00 PM 19.4 °F 14.3 °F 14.0 °F 80% 30.28 in 15.0 mi WNW 3.5 mph - N/A   Overcast
2:00 PM 19.4 °F 10.4 °F 15.8 °F 86% 30.28 in 15.0 mi WNW 6.9 mph - N/A   Mostly Cloudy
3:00 PM 19.4 °F 12.8 °F 15.8 °F 86% 30.27 in 15.0 mi WNW 4.6 mph - N/A   Overcast
4:00 PM 19.4 °F 14.3 °F 15.8 °F 86% 30.29 in 15.0 mi West 3.5 mph - N/A   Overcast
5:00 PM 19.4 °F 12.8 °F 15.8 °F 86% 30.30 in 15.0 mi West 4.6 mph - N/A   Overcast
6:00 PM 19 °F - 16 °F 83% 30.31 in 9 mi Calm Calm - -   Overcast
6:00 PM 19.4 °F 12.8 °F 15.8 °F 86% 30.31 in 15.0 mi West 4.6 mph - N/A   Overcast
7:00 PM 19.4 °F 14.3 °F 15.8 °F 86% 30.31 in 15.0 mi WSW 3.5 mph - N/A   Overcast
8:00 PM 19.4 °F 14.3 °F 15.8 °F 86% 30.31 in 15.0 mi South 3.5 mph - N/A   Overcast
9:00 PM 19.4 °F 14.3 °F 15.8 °F 86% 30.32 in 15.0 mi SW 3.5 mph - N/A   Overcast
10:00 PM 19.4 °F - 15.8 °F 86% 30.31 in 15.0 mi South 2.3 mph - N/A   Mostly Cloudy
11:00 PM 17.6 °F 10.7 °F 15.8 °F 93% 30.31 in 15.0 mi SW 4.6 mph - N/A   Mostly Cloudy